Estherville, IA

7:54 AM CDT on June 23, 2017 (GMT -0500)
Estherville Municipal

Weather History for KEST - November, 2011

Change the Weather History Date:

Sunday, November 6, 2011

  Actual Average Record
Temperature  
Mean Temperature 41 °F 38 °F  
Max Temperature 52 °F 48 °F 79 °F (1961)
Min Temperature 30 °F 28 °F 5 °F (1959)
Degree Days  
Heating Degree Days 24 27  
Month to date heating degree days 137 154  
Since 1 July heating degree days 761 903  
Cooling Degree Days 0 0  
Month to date cooling degree days 0 0  
Year to date cooling degree days 767 593  
Moisture  
Dew Point 32 °F    
Average Humidity 61    
Maximum Humidity 86    
Minimum Humidity 35    
Precipitation  
Precipitation 0.00 in 0.05 in 0.92 in (2000)
Month to date precipitation 0.03 0.35  
Year to date precipitation 19.00  
Sea Level Pressure  
Sea Level Pressure 29.77 in    
Wind  
Wind Speed 18 mph (SW)    
Max Wind Speed 30 mph    
Max Gust Speed 37 mph    
Visibility 10 miles    
Events      
T = Trace of Precipitation, MM = Missing Value Source: NWS Daily Summary

Daily Weather History Graph

Daily Weather History Graph

Search for Another Location

Airport or City:

Trip Planner

Search our weather history database for the weather conditions in past years. The results will help you decide how hot, cold, wet, or windy it might be!

Date:

Astronomy

Nov. 06, 2011 Rise Set
Actual Time 7:00 AM CST 5:04 PM CST
Civil Twilight 6:30 AM CST 5:34 PM CST
Nautical Twilight 5:56 AM CST 6:08 PM CST
Astronomical Twilight 5:22 AM CST 6:41 PM CST
Moon 2:53 PM CST (11/6) 3:01 AM CST (11/6)
Length of Visible Light 11h 03m
Length of Day
10h 03m
Waxing Gibbous, 86% of the Moon is Illuminated
Nov 6
Waxing Gibbous
Nov 10
Full
Nov 18
Last Quarter
Nov 25
New
Dec 2
First Quarter

Hourly Weather History & Observations

Time (CST) Temp. Windchill Dew Point Humidity Pressure Visibility Wind Dir Wind Speed Gust Speed Precip Events Conditions
12:52 AM 46.9 °F - 42.1 °F 83% 29.64 in 9.0 mi SSE 25.3 mph 33.4 mph N/A   Clear
1:52 AM 46.9 °F - 42.1 °F 83% 29.62 in 8.0 mi South 24.2 mph 34.5 mph N/A   Clear
1:52 AM 46.9 °F - 42.1 °F 83% 29.60 in 8.0 mi South 24.2 mph 31.1 mph N/A   Clear
2:52 AM 46.0 °F 38.3 °F 41.0 °F 83% 29.59 in 9.0 mi South 20.7 mph 29.9 mph N/A   Clear
3:52 AM 46.0 °F 37.6 °F 41.0 °F 83% 29.57 in 9.0 mi South 24.2 mph 29.9 mph N/A   Clear
4:52 AM 46.0 °F 38.5 °F 41.0 °F 83% 29.57 in 9.0 mi South 19.6 mph 25.3 mph N/A   Clear
5:52 AM 46.0 °F 38.3 °F 42.1 °F 86% 29.56 in 10.0 mi South 20.7 mph 31.1 mph N/A   Clear
6:52 AM 46.0 °F 37.8 °F 42.1 °F 86% 29.57 in 9.0 mi South 23.0 mph - N/A   Clear
7:52 AM 46.0 °F 39.3 °F 42.1 °F 86% 29.60 in 8.0 mi South 16.1 mph - N/A   Scattered Clouds
8:21 AM 48.2 °F - 42.8 °F 82% 29.62 in 10.0 mi SW 21.9 mph 32.2 mph N/A   Mostly Cloudy
8:52 AM 45.0 °F 35.8 °F 37.9 °F 76% 29.68 in 10.0 mi West 26.5 mph 32.2 mph N/A   Overcast
9:26 AM 44.6 °F 36.1 °F 35.6 °F 71% 29.68 in 8.0 mi West 21.9 mph 28.8 mph N/A   Scattered Clouds
9:52 AM 45.0 °F 36.9 °F 35.1 °F 68% 29.72 in 8.0 mi West 20.7 mph 26.5 mph N/A   Partly Cloudy
10:39 AM 46.4 °F 37.9 °F 33.8 °F 62% 29.75 in 10.0 mi West 25.3 mph 31.1 mph N/A   Mostly Cloudy
10:52 AM 46.0 °F 37.4 °F 33.1 °F 61% 29.78 in 10.0 mi WSW 25.3 mph 35.7 mph N/A   Mostly Cloudy
10:59 AM 46.4 °F 38.3 °F 33.8 °F 62% 29.76 in 10.0 mi West 23.0 mph 33.4 mph N/A   Scattered Clouds
11:52 AM 48.0 °F - 30.9 °F 52% 29.79 in 10.0 mi WSW 24.2 mph 33.4 mph N/A   Partly Cloudy
12:52 PM 50.0 °F - 28.0 °F 43% 29.81 in 10.0 mi WSW 23.0 mph 31.1 mph N/A   Clear
1:52 PM 51.1 °F - 26.1 °F 38% 29.83 in 10.0 mi West 25.3 mph - N/A   Clear
2:52 PM 52.0 °F - 25.0 °F 35% 29.85 in 10.0 mi WSW 23.0 mph 32.2 mph N/A   Clear
3:52 PM 51.1 °F - 24.1 °F 35% 29.88 in 10.0 mi WSW 21.9 mph 31.1 mph N/A   Clear
4:52 PM 48.0 °F - 23.0 °F 37% 29.91 in 10.0 mi WSW 17.3 mph - N/A   Clear
5:52 PM 42.1 °F 37.1 °F 21.9 °F 45% 29.95 in 10.0 mi SW 8.1 mph - N/A   Clear
6:52 PM 37.0 °F 31.6 °F 19.9 °F 50% 29.99 in 10.0 mi South 6.9 mph - N/A   Clear
7:52 PM 35.1 °F 27.4 °F 19.9 °F 54% 30.01 in 10.0 mi SSW 10.4 mph - N/A   Clear
8:52 PM 37.0 °F 31.0 °F 21.0 °F 52% 30.03 in 10.0 mi SSW 8.1 mph - N/A   Clear
9:52 PM 33.1 °F 26.1 °F 19.9 °F 59% 30.05 in 10.0 mi SSW 8.1 mph - N/A   Clear
10:52 PM 30.9 °F 22.8 °F 19.0 °F 61% 30.05 in 10.0 mi SSW 9.2 mph - N/A   Clear